User: anonymous   Login
Location: Theydon Bois
(51.6750°N, 0.1050°E)
Time: 10:55:13
(UTC+01:00)
Language:

Cosmos 1076 Rocket - Orbit

View from above orbital plane
View from above orbital plane
View from above satellite
View from above satellite

Ground track
Ground track

The orbit data is extracted from the following two-line orbital elements,

1 11267U 79011B   18172.19970615  .00000061  00000-0  37515-5 0  9995
2 11267  82.5255 241.0812 0018491  83.3988 276.9334 14.88897202130384
Epoch (UTC): 21 June 2018 04:47:34
Eccentricity: 0.0018491
inclination: 82.5255°
perigee height: 588 km
apogee height: 614 km
right ascension of ascending node: 241.0812°
argument of perigee: 83.3988°
revolutions per day: 14.88897202
mean anomaly at epoch: 276.9334°
orbit number at epoch: 13038

The dashed part of the orbit path shows where the satellite is in the earth's shadow,  

DLR